Terminal Aerodrome Forecast
Issued by NWS

Home | Current Version | Previous Version | Text Only | Print | Product List | Glossary On
Versions: 1 2 3 4 5 6 7 8 9 10 11 12 13 14 15
000
FTUS45 KMSO 092006 AAA
TAFSMN
TAF AMD
KSMN 092006Z 0920/1018 VRB03KT 4SM -SN BR SCT020 BKN030 OVC040
      TEMPO 0920/0923 1SM -SN BR BKN015
     FM100200 VRB03KT 3SM -SN BR BKN025 OVC040
     FM101000 VRB03KT 2SM -SN BR SCT007 BKN015
      AMD LTD TO CLD VIS AND WIND=

USA.gov is the U.S. government's official web portal to all federal, state and local government web resources and services.